Regional Weather Roundup
Issued by NWS

Home | Current Version | Previous Version | Graphics & Text | Print | Product List | Glossary On
Versions: 1 2 3 4 5 6 7 8 9 10 11 12 13 14 15 16 17 18 19 20 21 22 23 24 25 26 27 28 29 30 31 32 33 34 35 36 37 38 39 40 41 42 43 44 45 46 47 48 49 50
000
ASUS43 KFSD 311410
RWRSD

WEATHER ROUNDUP FOR SOUTH DAKOTA
NATIONAL WEATHER SERVICE SIOUX FALLS SD
800 AM CST SAT JAN 31 2015

NOTE: "FAIR" INDICATES FEW OR NO CLOUDS BELOW 12,000 FEET WITH NO
SIGNIFICANT WEATHER AND/OR OBSTRUCTIONS TO VISIBILITY.


SDZ001>005-009-010-012>017-311500-
NORTHWEST AND NORTH CENTRAL SOUTH DAKOTA

CITY           SKY/WX    TMP DP  RH WIND       PRES   REMARKS
BUFFALO          N/A     24  23  96 E9        29.94F WCI  14
FAITH            N/A     23  21  92 NE15      30.06F WCI  10
MOBRIDGE       CLOUDY    24  21  88 E14       30.15S WCI  12
$$

SDZ012>016-024>037-041>051-057-063-072>074-311500-
SOUTHWEST AND SOUTH CENTRAL SOUTH DAKOTA

CITY           SKY/WX    TMP DP  RH WIND       PRES   REMARKS
RAPID CTY ARPT CLOUDY    26  22  84 E7        30.01F WCI  18
PIERRE         CLOUDY    24  23  96 NE16      30.11S FOG     WCI  11
CUSTER         CLOUDY    26  19  74 NE7       29.93F WCI  18
ELLSWORTH AFB  CLOUDY    26  22  85 E8        30.00F WCI  18
PHILIP         FOG       26  25  96 E13       30.08R VSB 3/4 WCI  15
PINE RIDGE     CLOUDY    26  23  88 CALM      29.98F
SPEARFISH      FAIR      25  18  74 MISG      29.96S
WINNER         FOG       27  25  92 NE13      30.08R VSB 1/2 WCI  16
$$

SDZ004>011-016>023-039-040-311500-
NORTHEAST SOUTH DAKOTA

CITY           SKY/WX    TMP DP  RH WIND       PRES   REMARKS
ABERDEEN       CLOUDY    21  16  81 NE18      30.22R WCI   6
WATERTOWN      CLOUDY    19  16  88 NE20G26   30.13S WCI   3
SISSETON         N/A     17  14  88 NE20      30.24R WCI   1
$$

SDZ017-020-022-023-036>040-048>070-311500-
SOUTHEAST SOUTH DAKOTA

CITY           SKY/WX    TMP DP  RH WIND       PRES   REMARKS
SIOUX FALLS    CLOUDY    25  23  92 NE17      30.12R FOG     WCI  12
HURON          CLOUDY    25  23  92 NE14      30.15S WCI  13
CHAMBERLAIN    FOG       25  24  99 NE13      30.12R VSB 3/4 WCI  13
MITCHELL       CLOUDY    27  25  92 NE15      30.14R FOG     WCI  15
YANKTON        MOCLDY    28  25  86 CALM      30.10R
$$

ABBREVIATIONS USED IN REMARKS
   TC - TEMPERATURE IN CELSIUS
  WCI - WIND CHILL INDEX
   HX - HEAT INDEX
  VSB - VISIBILITY




USA.gov is the U.S. government's official web portal to all federal, state and local government web resources and services.